Location: Unspecified
(0.0000°N, 0.0000°E)
Time: 17:11:52
(UTC+00:00)

Envisat - Visible Passes

Search period start: 20 November 2017 00:00
Search period end: 30 November 2017 00:00
Orbit: 764 x 766 km, 98.2° (Epoch: 20 November)

Date Brightness Start Highest point End Pass type
(mag) Time Alt. Az. Time Alt. Az. Time Alt. Az.
24 Nov 5.7 20:21:39 10° S 20:21:43 10° S 20:21:43 10° S visible
26 Nov 5.9 20:47:50 10° SSW 20:47:51 10° SSW 20:47:51 10° SSW visible
27 Nov 5.5 20:10:29 10° S 20:10:49 12° S 20:10:49 12° S visible
29 Nov 5.6 20:36:24 10° S 20:36:57 13° SSW 20:36:57 13° SSW visible
